This demonstration page uses our WeatherBlox Daily Observations layout. Learn more.

Hourly Observations for January 3, 2019

Temp ( °F °C ) Dew Point ( °F °C ) Humidity (%) Winds ( mph kmh ) Pressure ( in mb ) Visibility ( mi km ) Precip ( " mm )
12:15 am 00:15 Clear 17 -8.5 13 -10.5 86 86 WNW 5 7 30.24 1024 10 16.09344 0 0
12:35 am 00:35 Clear 18 -7.7 15 -9.7 86 86 W 6 9 30.18 1022 10 16.09344 0 0
12:55 am 00:55 Clear 17 -8.1 13 -10.4 84 84 WNW 3 6 30.21 1023 10 16.09344 0 0
1:15 am 01:15 Clear 17 -8.6 13 -10.5 86 86 N 8 13 30.21 1023 10 16.09344 0 0
1:35 am 01:35 Clear 17 -8.6 13 -10.6 86 86 NW 8 13 30.21 1023 10 16.09344 0 0
1:55 am 01:55 Clear 17 -8.3 13 -10.7 83 83 NW 7 11 30.21 1023 10 16.09344 0 0
2:15 am 02:15 Clear 18 -7.9 13 -10.3 83 83 W 7 11 30.18 1022 10 16.09344 0 0
2:35 am 02:35 Clear 17 -8.3 13 -10.8 82 82 W 7 11 30.24 1024 10 16.09344 0 0
2:55 am 02:55 Clear 18 -7.6 14 -10.1 82 82 WNW 9 15 30.21 1023 10 16.09344 0 0
3:15 am 03:15 Clear 19 -7.3 13 -10.3 79 79 WNW 10 17 30.21 1023 10 16.09344 0 0
3:35 am 03:35 Clear 19 -7 14 -10 79 79 WNW 12 19 30.18 1022 10 16.09344 0 0
3:55 am 03:55 Clear 21 -6.2 14 -9.9 75 75 W 7 11 30.18 1022 10 16.09344 0 0
4:15 am 04:15 Clear 19 -7 14 -10.1 79 79 SSW 8 13 30.18 1022 10 16.09344 0 0
4:35 am 04:35 Clear 21 -6.1 15 -9.7 76 76 W 9 15 30.18 1022 10 16.09344 0 0
4:55 am 04:55 Clear 19 -7.1 13 -10.4 78 78 W 5 7 30.18 1022 10 16.09344 0 0
5:15 am 05:15 Clear 19 -7.5 13 -10.6 79 79 WNW 8 13 30.18 1022 10 16.09344 0 0
5:35 am 05:35 Clear 18 -7.8 12 -10.9 79 79 WNW 7 11 30.18 1022 10 16.09344 0 0
5:55 am 05:55 Clear 18 -7.6 13 -10.8 78 78 WSW 7 11 30.18 1022 10 16.09344 0 0
6:15 am 06:15 Clear 18 -7.7 12 -10.9 78 78 SW 6 9 30.18 1022 10 16.09344 0 0
6:35 am 06:35 Clear 17 -8.1 12 -11.2 79 79 WSW 3 6 30.15 1021 10 16.09344 0 0
6:55 am 06:55 Clear 16 -9 11 -11.7 81 81 Calm 30.18 1022 10 16.09344 0 0
7:15 am 07:15 Clear 16 -9.1 11 -11.6 82 82 NW 5 7 30.18 1022 10 16.09344 0 0
7:35 am 07:35 Clear 15 -9.7 10 -12.1 83 83 Calm 30.18 1022 10 16.09344 0 0
7:55 am 07:55 Clear 15 -9.3 11 -11.8 82 82 Calm 30.18 1022 10 16.09344 0 0
8:15 am 08:15 Sunny 14 -10.2 9 -12.7 82 82 NW 10 17 30.21 1023 10 16.09344 0 0
8:35 am 08:35 Sunny 17 -8.5 11 -11.5 79 79 W 5 7 30.21 1023 10 16.09344 0 0
8:55 am 08:55 Sunny 18 -7.6 13 -10.6 79 79 NW 9 15 30.18 1022 10 16.09344 0 0
9:15 am 09:15 Sunny 20 -6.9 13 -10.4 76 76 WNW 9 15 30.18 1022 10 16.09344 0 0
9:35 am 09:35 Sunny 22 -5.6 15 -9.6 74 74 WNW 7 11 30.18 1022 10 16.09344 0 0
9:55 am 09:55 Sunny 24 -4.3 17 -8.5 73 73 NW 10 17 30.15 1021 10 16.09344 0 0
10:15 am 10:15 Sunny 26 -3.1 17 -8.2 68 68 Calm 30.15 1021 10 16.09344 0 0
10:35 am 10:35 Sunny 27 -2.7 18 -7.7 69 69 W 3 6 30.15 1021 10 16.09344 0 0
10:55 am 10:55 Sunny 29 -1.8 19 -7.3 66 66 SW 3 6 30.12 1020 10 16.09344 0 0
11:15 am 11:15 Sunny 30 -1.1 20 -6.9 65 65 SW 3 6 30.12 1020 10 16.09344 0 0
11:35 am 11:35 Sunny 33 0.3 21 -6.1 63 63 S 6 9 30.09 1019 10 16.09344 0 0
11:55 am 11:55 Sunny 34 1 21 -6.2 59 59 WSW 9 15 30.06 1018 10 16.09344 0 0
12:15 pm 12:15 Sunny 33 0.7 21 -6.2 60 60 SW 8 13 30.06 1018 10 16.09344 0 0
12:35 pm 12:35 Sunny 34 1.1 22 -5.4 62 62 WSW 9 15 30.03 1017 10 16.09344 0 0
12:55 pm 12:55 Sunny 36 2 23 -5.2 59 59 W 9 15 30.03 1017 10 16.09344 0 0
1:15 pm 13:15 Sunny 37 3 24 -4.5 58 58 WSW 7 11 30.03 1017 10 16.09344 0 0
1:35 pm 13:35 Sunny 37 2.5 23 -4.8 59 59 SW 9 15 30 1016 10 16.09344 0 0
1:55 pm 13:55 Sunny 38 3.1 24 -4.6 57 57 SW 9 15 29.97 1015 10 16.09344 0 0
2:15 pm 14:15 Sunny 38 3.6 25 -4.1 58 58 SW 9 15 29.97 1015 10 16.09344 0 0
2:35 pm 14:35 Sunny 39 3.8 25 -3.7 58 58 SW 10 17 29.97 1015 10 16.09344 0 0
2:55 pm 14:55 Sunny 38 3.6 26 -3.2 61 61 WSW 6 9 29.97 1015 10 16.09344 0 0
3:15 pm 15:15 Sunny 39 4 26 -3.2 60 60 W 7 11 29.97 1015 10 16.09344 0 0
3:35 pm 15:35 Sunny 39 3.8 27 -2.7 63 63 WSW 6 9 29.97 1015 10 16.09344 0 0
3:55 pm 15:55 Sunny 39 3.7 28 -2 67 67 W 3 6 29.97 1015 10 16.09344 0 0
4:15 pm 16:15 Sunny 38 3.6 28 -2.3 66 66 W 7 11 29.94 1014 10 16.09344 0 0
4:35 pm 16:35 Sunny 38 3.6 28 -2.5 65 65 W 5 7 29.94 1014 10 16.09344 0 0
4:55 pm 16:55 Sunny 37 3 28 -2.5 67 67 W 3 6 29.94 1014 10 16.09344 0 0
5:15 pm 17:15 Sunny 36 2 28 -2.5 72 72 NW 3 6 29.97 1015 10 16.09344 0 0
5:35 pm 17:35 Clear 34 0.9 27 -2.9 76 76 NW 6 9 29.97 1015 10 16.09344 0 0
5:55 pm 17:55 Clear 32 0 26 -3.1 80 80 NW 3 6 29.97 1015 10 16.09344 0 0
6:15 pm 18:15 Clear 31 -0.6 26 -3.5 81 81 Calm 30.03 1017 10 16.09344 0 0
6:35 pm 18:35 Clear 29 -1.4 25 -4 83 83 Calm 30 1016 10 16.09344 0 0
6:55 pm 18:55 Clear 30 -1.2 26 -3.4 85 85 Calm 30.03 1017 10 16.09344 0 0
7:15 pm 19:15 Clear 31 -0.7 26 -3.6 81 81 S 5 7 30.03 1017 10 16.09344 0 0
7:35 pm 19:35 Clear 29 -1.5 25 -4.1 83 83 SSW 5 7 30.03 1017 10 16.09344 0 0
7:55 pm 19:55 Clear 28 -2.1 24 -4.6 83 83 S 3 6 30.03 1017 10 16.09344 0 0
8:15 pm 20:15 Clear 28 -2.4 23 -4.9 83 83 S 8 13 30.03 1017 10 16.09344 0 0
8:35 pm 20:35 Clear 30 -1.3 23 -4.9 77 77 SW 5 7 30.03 1017 10 16.09344 0 0
8:55 pm 20:55 Clear 29 -1.9 23 -5.1 79 79 S 3 6 30.03 1017 10 16.09344 0 0
9:15 pm 21:15 Clear 29 -1.7 23 -4.9 79 79 SSW 3 6 30.03 1017 10 16.09344 0 0
9:35 pm 21:35 Clear 27 -3 21 -6 80 80 WNW 3 6 30.03 1017 10 16.09344 0 0
9:55 pm 21:55 Clear 25 -3.9 21 -5.9 86 86 Calm 30.06 1018 10 16.09344 0 0
10:15 pm 22:15 Clear 24 -4.4 21 -6.2 87 87 Calm 30.06 1018 10 16.09344 0 0
10:35 pm 22:35 Clear 24 -4.4 21 -6.2 87 87 NNW 3 6 30.06 1018 10 16.09344 0 0
10:55 pm 22:55 Clear 24 -4.7 20 -6.5 87 87 N 3 6 30.06 1018 10 16.09344 0 0
11:15 pm 23:15 Clear 22 -5.5 19 -7.2 88 88 NW 3 6 30.06 1018 10 16.09344 0 0
11:35 pm 23:35 Clear 23 -5 20 -6.7 88 88 WNW 7 11 30.06 1018 10 16.09344 0 0
11:55 pm 23:55 Clear 23 -5.2 19 -7.1 87 87 WNW 6 9 30.06 1018 10 16.09344 0 0

Powered by AerisWeather